Tiempo cada hora Barroquinha

Hoy, 25 Junio, Viernes

Tiempo Temperatura Precipitaciones Viento Presión Humedad
00:00 +24°C° 0.1 mm 1 mps 758 mmHg 92%
01:00 +23°C° 0.1 mm 1 mps 757 mmHg 93%
02:00 +23°C° 0.1 mm 2 mps 757 mmHg 94%
03:00 +23°C° 0.1 mm 2 mps 757 mmHg 95%
04:00 +23°C° 0 mm 2 mps 757 mmHg 94%
05:00 +23°C° 0 mm 2 mps 757 mmHg 94%
06:00 +23°C° 0 mm 2 mps 757 mmHg 94%
07:00 +25°C° 0 mm 2 mps 758 mmHg 82%
08:00 +28°C° 0 mm 2 mps 758 mmHg 70%
09:00 +30°C° 0 mm 2 mps 759 mmHg 58%
10:00 +32°C° 0 mm 2 mps 758 mmHg 52%
11:00 +34°C° 0 mm 2 mps 758 mmHg 47%
12:00 +35°C° 0 mm 2 mps 757 mmHg 42%
13:00 +35°C° 0 mm 3 mps 756 mmHg 45%
14:00 +35°C° 0 mm 3 mps 756 mmHg 48%
15:00 +34°C° 0 mm 4 mps 755 mmHg 50%
16:00 +32°C° 0 mm 4 mps 755 mmHg 61%
17:00 +29°C° 0 mm 3 mps 756 mmHg 71%
18:00 +27°C° 0 mm 3 mps 756 mmHg 82%
19:00 +26°C° 0.6 mm 3 mps 757 mmHg 86%
20:00 +25°C° 0.6 mm 2 mps 757 mmHg 90%
21:00 +25°C° 0.6 mm 2 mps 758 mmHg 95%
22:00 +25°C° 0.1 mm 2 mps 757 mmHg 95%
23:00 +25°C° 0.1 mm 2 mps 757 mmHg 95%

Mañana, 26 Junio, Sábado

Tiempo Temperatura Precipitaciones Viento Presión Humedad
00:00 +25°C° 0.1 mm 2 mps 757 mmHg 95%
01:00 +24°C° 0.4 mm 2 mps 756 mmHg 96%
02:00 +24°C° 0.4 mm 2 mps 756 mmHg 97%
03:00 +24°C° 0.4 mm 2 mps 756 mmHg 98%
04:00 +24°C° 1.2 mm 2 mps 756 mmHg 98%
05:00 +23°C° 1.2 mm 2 mps 756 mmHg 98%
06:00 +22°C° 1.2 mm 3 mps 757 mmHg 98%
07:00 +25°C° 0.1 mm 3 mps 757 mmHg 89%
08:00 +27°C° 0.1 mm 3 mps 757 mmHg 80%
09:00 +29°C° 0.1 mm 3 mps 758 mmHg 71%
10:00 +31°C° 0 mm 3 mps 757 mmHg 63%
11:00 +33°C° 0 mm 3 mps 757 mmHg 55%
12:00 +35°C° 0 mm 3 mps 756 mmHg 48%
13:00 +34°C° 0 mm 3 mps 756 mmHg 54%
14:00 +31°C° 0 mm 3 mps 755 mmHg 61%
15:00 +30°C° 0 mm 3 mps 755 mmHg 68%
16:00 +29°C° 0 mm 3 mps 755 mmHg 73%
17:00 +28°C° 0 mm 3 mps 755 mmHg 78%
18:00 +27°C° 0 mm 3 mps 756 mmHg 83%
19:00 +27°C° 0 mm 3 mps 756 mmHg 85%
20:00 +26°C° 0 mm 2 mps 757 mmHg 87%
21:00 +25°C° 0 mm 2 mps 757 mmHg 90%
22:00 +25°C° 0.2 mm 2 mps 757 mmHg 90%
23:00 +25°C° 0.2 mm 2 mps 757 mmHg 91%

Pasado mañana, 27 Junio, Domingo

Tiempo Temperatura Precipitaciones Viento Presión Humedad
00:00 +25°C° 0.2 mm 2 mps 757 mmHg 92%
01:00 +24°C° 0.5 mm 2 mps 756 mmHg 93%
02:00 +24°C° 0.5 mm 2 mps 756 mmHg 94%
03:00 +23°C° 0.5 mm 2 mps 755 mmHg 96%
04:00 +23°C° 0.7 mm 2 mps 756 mmHg 96%
05:00 +23°C° 0.7 mm 2 mps 756 mmHg 97%
06:00 +23°C° 0.7 mm 2 mps 756 mmHg 97%
07:00 +25°C° 0 mm 3 mps 757 mmHg 89%
08:00 +27°C° 0 mm 3 mps 757 mmHg 81%
09:00 +29°C° 0 mm 3 mps 758 mmHg 72%
10:00 +30°C° 0 mm 3 mps 757 mmHg 63%
11:00 +33°C° 0 mm 3 mps 757 mmHg 54%
12:00 +35°C° 0 mm 2 mps 756 mmHg 45%
13:00 +35°C° 0 mm 2 mps 756 mmHg 46%
14:00 +35°C° 0 mm 3 mps 755 mmHg 46%
15:00 +35°C° 0 mm 3 mps 754 mmHg 47%
16:00 +33°C° 0 mm 3 mps 755 mmHg 58%
17:00 +29°C° 0 mm 2 mps 755 mmHg 70%
18:00 +27°C° 0 mm 2 mps 756 mmHg 82%
19:00 +26°C° 0.1 mm 2 mps 756 mmHg 85%
20:00 +26°C° 0.1 mm 2 mps 757 mmHg 88%
21:00 +25°C° 0.1 mm 2 mps 757 mmHg 90%
22:00 +25°C° 0 mm 1 mps 757 mmHg 91%
23:00 +25°C° 0 mm 1 mps 757 mmHg 91%

28 Junio, Lunes

Tiempo Temperatura Precipitaciones Viento Presión Humedad
00:00 +24°C° 0 mm 1 mps 757 mmHg 91%
01:00 +24°C° 0 mm 1 mps 757 mmHg 92%
02:00 +24°C° 0 mm 2 mps 757 mmHg 93%
03:00 +23°C° 0 mm 2 mps 757 mmHg 94%
04:00 +23°C° 0 mm 2 mps 757 mmHg 95%
05:00 +23°C° 0 mm 2 mps 757 mmHg 95%
06:00 +23°C° 0 mm 2 mps 758 mmHg 95%
07:00 +25°C° 0 mm 3 mps 758 mmHg 81%
08:00 +28°C° 0 mm 3 mps 758 mmHg 68%
09:00 +30°C° 0 mm 4 mps 759 mmHg 54%
10:00 +33°C° 0 mm 3 mps 758 mmHg 49%
11:00 +34°C° 0 mm 3 mps 758 mmHg 44%
12:00 +35°C° 0 mm 3 mps 757 mmHg 39%
13:00 +35°C° 0 mm 3 mps 757 mmHg 40%
14:00 +35°C° 0 mm 3 mps 756 mmHg 42%
15:00 +35°C° 0 mm 3 mps 756 mmHg 43%
16:00 +33°C° 0 mm 3 mps 756 mmHg 55%
17:00 +29°C° 0 mm 3 mps 757 mmHg 67%
18:00 +27°C° 0 mm 2 mps 757 mmHg 79%
19:00 +26°C° 0 mm 2 mps 757 mmHg 81%
20:00 +26°C° 0 mm 2 mps 758 mmHg 84%
21:00 +25°C° 0 mm 2 mps 758 mmHg 86%
22:00 +25°C° 0 mm 1 mps 758 mmHg 87%
23:00 +25°C° 0 mm 1 mps 758 mmHg 88%

29 Junio, Martes

Tiempo Temperatura Precipitaciones Viento Presión Humedad
00:00 +25°C° 0 mm 1 mps 758 mmHg 90%
01:00 +25°C° 0.2 mm 2 mps 758 mmHg 90%
02:00 +25°C° 0.2 mm 2 mps 758 mmHg 90%
03:00 +25°C° 0.2 mm 2 mps 757 mmHg 89%
04:00 +24°C° 0.5 mm 2 mps 758 mmHg 92%
05:00 +24°C° 0.5 mm 2 mps 758 mmHg 94%
06:00 +22°C° 0.5 mm 3 mps 758 mmHg 96%
07:00 +26°C° 0 mm 3 mps 759 mmHg 85%
08:00 +28°C° 0 mm 3 mps 759 mmHg 74%
09:00 +30°C° 0 mm 3 mps 759 mmHg 63%
10:00 +32°C° 0 mm 2 mps 759 mmHg 56%
11:00 +34°C° 0 mm 2 mps 758 mmHg 48%
12:00 +36°C° 0 mm 2 mps 758 mmHg 41%
13:00 +35°C° 0 mm 2 mps 757 mmHg 43%
14:00 +35°C° 0 mm 3 mps 757 mmHg 45%
15:00 +35°C° 0 mm 3 mps 756 mmHg 47%
16:00 +33°C° 0.1 mm 3 mps 757 mmHg 59%
17:00 +29°C° 0.1 mm 3 mps 757 mmHg 70%
18:00 +27°C° 0.1 mm 2 mps 758 mmHg 81%
19:00 +27°C° 0.6 mm 2 mps 758 mmHg 84%
20:00 +26°C° 0.6 mm 2 mps 759 mmHg 87%
21:00 +26°C° 0.6 mm 2 mps 759 mmHg 91%
22:00 +26°C° 0.1 mm 3 mps 759 mmHg 91%
23:00 +25°C° 0.1 mm 3 mps 759 mmHg 91%

30 Junio, Miércoles

Tiempo Temperatura Precipitaciones Viento Presión Humedad
00:00 +25°C° 0.1 mm 3 mps 758 mmHg 91%
01:00 +25°C° 0 mm 3 mps 758 mmHg 90%
02:00 +25°C° 0 mm 3 mps 758 mmHg 90%
03:00 +25°C° 0 mm 3 mps 758 mmHg 89%
04:00 +24°C° 0 mm 3 mps 758 mmHg 90%
05:00 +24°C° 0 mm 3 mps 758 mmHg 90%
06:00 +24°C° 0 mm 3 mps 758 mmHg 91%
07:00 +26°C° 0 mm 4 mps 759 mmHg 83%
08:00 +28°C° 0 mm 4 mps 759 mmHg 75%
09:00 +29°C° 0 mm 4 mps 759 mmHg 67%
10:00 +30°C° 0 mm 4 mps 759 mmHg 63%
11:00 +32°C° 0 mm 4 mps 759 mmHg 60%
12:00 +33°C° 0 mm 4 mps 758 mmHg 56%
13:00 +32°C° 0.1 mm 4 mps 758 mmHg 58%
14:00 +32°C° 0.1 mm 4 mps 757 mmHg 61%
15:00 +31°C° 0.1 mm 3 mps 757 mmHg 63%
16:00 +30°C° 0.1 mm 4 mps 757 mmHg 67%
17:00 +29°C° 0.1 mm 4 mps 757 mmHg 70%
18:00 +28°C° 0.1 mm 4 mps 757 mmHg 74%
19:00 +28°C° 0.5 mm 4 mps 758 mmHg 76%
20:00 +27°C° 0.5 mm 4 mps 758 mmHg 79%
21:00 +26°C° 0.5 mm 4 mps 759 mmHg 82%
22:00 +26°C° 0 mm 4 mps 759 mmHg 83%
23:00 +26°C° 0 mm 4 mps 759 mmHg 84%
Mostrar más

Necesitamos Su Consentimiento

Meteoprog y nuestros Proveedores de Servicios pueden almacenar y acceder a sus datos personales como cookies, identificadores de dispositivo u otras tecnologías similares de su dispositivo y procesar dichos datos para personalizar contenido y anuncios, además de ofrecer funciones de redes sociales y analizar el tráfico.

  • Almacenar y/o acceder a información en su dispositivo

    Se puede almacenar o acceder a cookies, identificadores de dispositivo u otra información de su dispositivo para los fines anteriormente indicados.

  • Anuncios y contenido personalizados, medición de anuncios y contenido, percepciones del público, y desarrollo de productos

    Los anuncios y el contenido pueden personalizarse en base a su perfil. Se pueden añadir más datos para personalizar mejor los anuncios y contenidos. Se puede medir el rendimiento de los anuncios y contenidos. Se puede obtener la percepción sobre el público que ha visto los anuncios y contenidos. Dichos datos pueden usarse para desarrollar o mejorar la experiencia del usuario, sistemas y software.

Al hacer clic en ‘Estoy De Acuerdo’ usted permitirá el uso de las cookies, identificadores de dispositivo, balizas web u otras tecnologías similares indicadas. Su configuración puede cambiarse desde el navegador de su dispositivo.

Para ciertos fines, los intereses legítimos pueden ser considerados por encima del consentimiento. Puede leer más sobre ello en nuestra Política de Privacidad y Cookies.